This demonstration page uses our WeatherBlox Daily Observations layout. Learn more.

Left ArrowRight Arrow

41.12389, -100.76542

Hourly Observations for December 30, 2016

Temp ( °F °C ) Dew Point ( °F °C ) Humidity (%) Winds ( mph kmh ) Pressure ( in mb ) Visibility ( mi km ) Precip ( " mm )
12:53 am 00:53 Clear 26 -3.3 11 -11.7 53 53 S 8 13 30.22 1023 10 16 0.00 0.00
1:53 am 01:53 Clear 28 -2.2 11 -11.7 49 49 VRB 3 6 30.17 1022 10 16 0.00 0.00
2:53 am 02:53 Clear 27 -2.8 12 -11.1 53 53 SW 6 9 30.16 1021 10 16 0.00 0.00
3:53 am 03:53 Clear 19 -7.2 11 -11.7 71 71 W 3 6 30.14 1021 10 16 0.00 0.00
4:53 am 04:53 Clear 18 -7.8 11 -11.7 74 74 W 5 7 30.11 1020 10 16 0.00 0.00
5:53 am 05:53 Clear 18 -7.8 12 -11.1 77 77 W 5 7 30.08 1019 10 16 0.00 0.00
6:53 am 06:53 Clear 18 -7.8 13 -10.6 81 81 W 7 11 30.06 1018 10 16 0.00 0.00
7:53 am 07:53 Clear 17 -8.3 13 -10.6 84 84 W 3 6 30.05 1018 10 16 0.00 0.00
8:53 am 08:53 Sunny 23 -5 18 -7.8 81 81 W 5 7 30.01 1016 10 16 0.00 0.00
9:53 am 09:53 Sunny 32 0 22 -5.6 66 66 W 14 22 29.98 1015 10 16 0.00 0.00
10:53 am 10:53 Sunny 39 3.9 23 -5 53 53 W 8 13 29.92 1013 10 16 0.00 0.00
11:53 am 11:53 Sunny 46 7.8 24 -4.4 42 42 W 6 9 29.86 1011 10 16 0.00 0.00
12:53 pm 12:53 Sunny 51 10.6 25 -3.9 36 36 WNW 5 7 29.77 1008 10 16 0.00 0.00
1:53 pm 13:53 Sunny 56 13.3 25 -3.9 30 30 Calm 29.71 1006 10 16 0.00 0.00
2:53 pm 14:53 Sunny 62 16.7 21 -6.1 21 21 NW 8 13 29.67 1005 10 16 0.00 0.00
3:53 pm 15:53 Sunny 58 14.4 22 -5.6 25 25 WNW 7 11 29.67 1005 10 16 0.00 0.00
4:53 pm 16:53 Sunny 49 9.4 21 -6.1 33 33 NW 6 9 29.69 1005 10 16 0.00 0.00
5:53 pm 17:53 Clear 37 2.8 20 -6.7 50 50 NNW 6 9 29.70 1006 10 16 0.00 0.00
6:53 pm 18:53 Clear 44 6.7 20 -6.7 38 38 N 15 24 29.72 1006 10 16 0.00 0.00
7:53 pm 19:53 Clear 41 5 22 -5.6 47 47 NNE 20 31 29.75 1007 10 16 0.00 0.00
8:53 pm 20:53 Clear 37 2.8 22 -5.6 54 54 NNE 21 33 29.75 1008 10 16 0.00 0.00
9:53 pm 21:53 Clear 34 1.1 21 -6.1 59 59 N 12 19 29.77 1008 10 16 0.00 0.00
10:53 pm 22:53 Clear 32 0 21 -6.1 64 64 N 9 15 29.78 1009 10 16 0.00 0.00
11:53 pm 23:53 Clear 31 -0.6 21 -6.1 67 67 N 8 13 29.78 1009 10 16 0.00 0.00

Powered by AerisWeather